LB7PJ Weather Reports


Display with metric or nautical units.
time (UTC)temp
F
wind
direction
speed
MPH
gust
MPH
rain 1hr
in
rain 24hr
in
rain mn
in
humidity
%
barometer
mb
20260503004502 39 282 2.0 0.0 0.00 0.00 0.00 61 1009.9
20260503003002 39 282 2.0 0.0 0.00 0.00 0.00 61 1009.9
20260503001502 39 282 2.0 0.0 0.00 0.00 0.00 61 1009.9
20260503000002 39 281 3.0 0.0 0.00 0.00 0.00 61 1009.9
20260502234502 39 281 3.0 0.0 0.00 0.00 0.00 61 1009.9
20260502233002 40 281 3.0 0.0 0.00 0.00 0.00 61 1009.9
20260502231502 40 281 3.0 0.0 0.00 0.00 0.00 61 1009.9
20260502230002 43 281 3.0 0.0 0.00 0.00 0.00 61 1009.9
20260502224501 43 281 3.0 0.0 0.00 0.00 0.00 61 1009.9
20260502223002 43 281 3.0 0.0 0.00 0.00 0.00 61 1009.9
20260502221502 45 300 3.0 0.0 0.00 0.00 0.00 61 1009.9
20260502220003 45 300 3.0 0.0 0.00 0.00 0.00 61 1009.9
20260502214501 46 298 3.0 0.0 0.00 0.00 0.00 61 1009.9
20260502213002 46 298 3.0 0.0 0.00 0.00 0.00 61 1009.9
20260502211501 46 298 3.0 0.0 0.00 0.00 0.00 61 1009.9
20260502210002 47 298 3.0 0.0 0.00 0.00 0.00 61 1009.9
20260502204502 47 298 3.0 0.0 0.00 0.00 0.00 61 1009.9
20260502203002 49 304 3.0 0.0 0.00 0.00 0.00 61 1009.9
20260502201502 49 304 3.0 0.0 0.00 0.00 0.00 61 1009.9
20260502200002 50 288 2.0 0.0 0.00 0.00 0.00 61 1009.9
20260502194502 50 288 2.0 0.0 0.00 0.00 0.00 61 1009.9
20260502193002 50 288 2.0 0.0 0.00 0.00 0.00 61 1009.9
20260502191501 50 288 2.0 0.0 0.00 0.00 0.00 61 1009.9
20260502190002 50 288 2.0 0.0 0.00 0.00 0.00 61 1009.9
20260502184501 51 272 3.0 0.0 0.00 0.00 0.00 61 1009.9
20260502183002 51 272 3.0 0.0 0.00 0.00 0.00 61 1009.9
20260502181501 51 272 3.0 0.0 0.00 0.00 0.00 61 1009.9
20260502163001 53 240 2.0 0.0 0.00 0.00 0.00 61 1009.9
20260502161502 53 240 2.0 0.0 0.00 0.00 0.00 61 1009.9
20260502151502 52 260 2.0 0.0 0.00 0.00 0.00 61 1009.9
20260502123001 55 297 6.0 0.0 0.00 0.00 0.00 61 1009.9
20260502121502 59 240 2.0 0.0 0.00 0.00 0.00 61 1009.9
20260502114502 61 116 2.0 0.0 0.00 0.00 0.00 61 1009.9
20260502113002 61 116 2.0 0.0 0.00 0.00 0.00 61 1009.9
20260502111501 62 116 2.0 0.0 0.00 0.00 0.00 61 1009.9
20260502110002 62 116 2.0 0.0 0.00 0.00 0.00 61 1009.9
20260502104501 62 116 2.0 0.0 0.00 0.00 0.00 61 1009.9
20260502103002 59 122 2.0 0.0 0.00 0.00 0.00 61 1009.9
20260502101501 59 122 2.0 0.0 0.00 0.00 0.00 61 1009.9
20260502091501 56 154 2.0 0.0 0.00 0.00 0.00 61 1009.9
20260502071502 45 280 2.0 0.0 0.00 0.00 0.00 61 1009.9
20260502070002 46 276 1.0 0.0 0.00 0.00 0.00 61 1009.9
20260502064501 46 276 1.0 0.0 0.00 0.00 0.00 61 1009.9
20260502063001 40 273 2.0 0.0 0.00 0.00 0.00 61 1009.9
20260502060001 38 265 4.0 0.0 0.00 0.00 0.00 61 1009.9
20260502054502 38 265 4.0 0.0 0.00 0.00 0.00 61 1009.9
20260502053001 38 265 4.0 0.0 0.00 0.00 0.00 61 1009.9
20260502051502 39 265 4.0 0.0 0.00 0.00 0.00 61 1009.9
20260502050001 39 265 4.0 0.0 0.00 0.00 0.00 61 1009.9
20260502044502 39 261 4.0 0.0 0.00 0.00 0.00 61 1009.9
20260502043001 39 261 4.0 0.0 0.00 0.00 0.00 61 1009.9
20260502041502 39 261 4.0 0.0 0.00 0.00 0.00 61 1009.9
20260502040002 39 261 4.0 0.0 0.00 0.00 0.00 61 1009.9
20260502034502 39 261 4.0 0.0 0.00 0.00 0.00 61 1009.9
20260502033002 41 256 3.0 0.0 0.00 0.00 0.00 61 1009.9
20260502031502 41 256 3.0 0.0 0.00 0.00 0.00 61 1009.9
20260502030002 40 256 3.0 0.0 0.00 0.00 0.00 61 1009.9
20260502024502 40 256 3.0 0.0 0.00 0.00 0.00 61 1009.9
20260502023002 42 269 3.0 0.0 0.00 0.00 0.00 61 1009.9
20260502021502 42 269 3.0 0.0 0.00 0.00 0.00 61 1009.9
20260502020002 42 269 3.0 0.0 0.00 0.00 0.00 61 1009.9
20260502014501 45 282 3.0 0.0 0.00 0.00 0.00 61 1009.9
20260502013002 45 282 3.0 0.0 0.00 0.00 0.00 61 1009.9
20260502011501 44 278 4.0 0.0 0.00 0.00 0.00 61 1009.9
20260502010002 44 278 4.0 0.0 0.00 0.00 0.00 61 1009.9